Wind_Speed
5 7 9 13 17 10 1 2 1 2 2 2 2 0 3 4 2 2 2 1 0 2 2 3 3 3 3 4 6 5 6 7 6 5 2 4 6 18 19 10 24 30 27 28 26 25 23 23 21 20 20 19 19 19 19 18 17 16 17 17 16 16 15 13 12 12 12 14 16 18 17 17 17 17 19 19 18 15 14 16 14 13 14 14 13 13 13 12 11 11 12 11 11 11 11 11 10
4 10 12 15 13 5 1 2 2 3 4 2 2 1 4 4 3 3 3 2 2 3 1 6 6 4 6 7 7 6 3 1 5 5 2 9 15 19 17 13 27 30 28 29 27 25 24 24 22 21 20 20 20 19 20 18 17 16 17 17 16 15 15 14 13 14 14 16 18 18 17 17 16 16 17 17 18 16 15 15 14 13 14 14 13 14 13 11 11 11 12 12 12 12 11 10 11
6 12 17 16 7 2 1 3 2 1 4 1 3 3 3 4 4 6 6 6 3 1 3 5 5 4 6 6 4 5 2 3 5 5 4 15 14 17 18 18 29 29 28 29 27 26 25 24 22 22 21 21 20 20 20 18 16 15 16 16 15 14 15 15 14 15 15 17 18 18 17 16 15 16 17 17 18 17 16 15 14 14 14 15 14 14 12 11 11 12 12 12 12 11 11 11 12
10 15 17 12 2 3 2 3 1 4 1 2 2 4 1 1 5 8 9 7 6 6 1 1 3 1 3 5 1 4 3 2 3 6 6 12 14 22 22 23 31 29 29 29 27 26 25 24 22 22 21 21 21 20 20 19 17 15 16 15 14 13 14 15 15 15 15 18 18 17 17 17 17 18 18 18 18 17 15 14 13 14 15 15 14 14 11 11 11 12 12 12 12 12 12 12 12
13 17 13 5 2 1 2 1 1 4 3 3 2 3 4 6 6 7 6 1 7 7 1 2 1 1 1 2 1 2 2 2 2 7 9 11 18 27 26 28 33 29 30 28 27 27 26 24 22 22 21 21 21 21 20 19 17 15 15 14 14 12 13 15 15 15 16 19 18 17 17 17 18 18 16 17 17 16 14 13 13 14 15 15 14 12 11 11 13 13 13 13 13 12 12 12 12
14 15 6 2 2 1 2 1 2 2 4 4 2 4 5 6 6 4 1 7 6 4 3 3 1 1 2 1 2 3 1 2 2 6 11 15 21 27 28 32 33 30 30 28 28 28 26 24 23 23 22 22 21 21 21 20 17 16 15 13 13 12 12 14 15 15 16 20 20 18 17 16 17 17 16 16 16 15 14 14 14 15 15 14 13 11 11 13 13 13 13 13 12 12 12 12 12
11 8 1 2 1 1 3 3 4 3 4 4 3 4 5 7 5 1 4 6 3 1 3 3 2 2 1 1 2 5 8 4 3 5 13 21 26 28 30 32 32 30 29 28 28 27 25 24 24 23 22 22 21 21 21 20 18 17 15 13 12 11 12 13 13 14 15 19 21 19 17 16 16 17 17 15 15 15 14 14 14 14 14 13 12 11 12 14 14 14 13 13 12 12 12 12 12
9 4 1 3 1 2 2 3 4 3 3 3 4 4 5 7 4 2 4 3 2 1 3 2 4 4 2 3 2 6 14 7 4 12 20 26 30 30 31 32 31 29 28 28 28 27 25 24 25 23 22 22 21 20 20 20 18 17 16 14 13 11 11 11 11 11 14 17 19 18 17 16 16 17 16 15 15 15 14 13 14 13 13 12 11 12 13 14 13 14 13 12 11 11 11 12 11
6 2 0 2 1 0 0 3 4 2 2 3 3 4 5 6 3 1 3 0 2 3 3 1 5 3 3 6 1 4 11 9 11 19 26 30 32 32 31 31 31 29 26 27 28 27 25 24 25 23 22 22 21 20 20 19 18 17 16 15 15 13 11 10 9 9 11 15 17 16 15 15 15 16 15 15 15 15 14 12 12 12 12 11 12 13 13 13 13 13 12 11 10 10 11 11 11
3 1 2 1 2 2 3 3 3 2 3 4 4 5 5 3 1 0 3 2 1 3 1 2 7 4 1 4 2 3 5 10 18 22 26 30 31 32 31 30 30 29 27 27 28 26 25 24 24 24 23 22 21 20 20 19 18 17 16 16 15 13 12 10 9 8 9 12 15 15 14 14 14 15 15 14 14 14 13 11 10 10 10 11 13 13 13 13 13 13 12 10 9 9 10 10 10
1 2 2 1 2 4 5 4 5 4 3 3 4 5 5 3 4 1 1 3 2 2 3 1 5 3 3 2 2 3 6 12 18 22 24 27 30 30 30 28 28 27 28 28 28 26 25 24 23 23 22 22 21 20 20 19 18 17 16 16 15 13 12 10 8 8 9 10 11 14 13 14 14 14 14 13 13 13 12 10 9 9 9 11 13 13 12 13 12 12 11 9 8 8 9 10 9
1 1 3 2 4 4 5 4 7 5 2 2 3 5 3 2 4 3 3 3 2 3 2 3 2 4 4 1 1 4 6 7 13 23 25 25 26 27 27 27 26 25 26 27 27 25 25 24 23 22 21 21 21 20 19 18 18 17 16 16 15 14 12 10 9 8 8 8 9 12 13 13 14 14 13 13 12 11 11 10 9 9 9 13 14 12 12 12 12 11 10 8 7 7 8 9 9
3 2 5 2 4 4 4 4 5 5 4 3 4 4 3 3 3 5 5 5 5 4 1 1 4 4 3 1 3 4 4 4 12 20 23 24 24 24 24 24 24 24 25 25 26 26 26 25 23 22 21 20 20 19 19 19 18 18 17 16 15 13 12 10 9 9 7 7 8 10 13 14 14 13 12 12 11 10 10 9 9 8 10 13 13 12 12 11 11 10 9 7 6 6 8 8 9
4 3 5 3 2 4 4 3 4 5 5 4 4 4 3 2 4 7 8 7 4 4 3 3 3 2 2 1 2 3 4 6 12 16 18 22 23 23 22 22 23 24 25 24 25 27 26 25 24 23 22 20 20 19 18 18 18 17 16 15 15 13 12 10 9 8 7 7 6 7 11 14 14 13 12 12 11 10 9 9 9 8 10 14 13 12 12 11 10 9 8 6 5 6 8 9 8
5 2 4 2 2 3 4 4 5 6 5 4 4 3 3 2 5 5 5 7 1 2 4 1 2 0 3 3 2 5 11 14 13 14 17 19 21 22 21 21 22 22 24 24 25 27 27 26 24 23 22 21 21 20 19 18 17 17 16 15 15 13 12 10 9 8 7 6 5 5 8 14 15 11 12 12 11 11 9 9 9 9 11 14 13 12 11 10 9 8 6 5 5 6 8 9 8
3 3 3 3 5 5 5 5 6 6 5 3 4 3 4 3 3 4 4 8 3 2 4 1 2 1 5 4 5 14 22 22 18 15 17 18 19 19 19 20 20 21 22 24 26 27 27 26 24 23 23 22 21 21 20 19 17 17 16 15 15 13 12 10 9 7 7 6 5 6 6 11 14 11 11 12 11 11 11 10 10 9 11 13 12 12 10 9 8 7 5 4 5 7 8 8 7
2 3 3 6 6 7 6 6 6 6 5 4 5 4 4 4 2 1 3 10 9 4 5 1 1 2 3 3 12 26 29 27 25 20 18 19 20 19 18 19 19 20 22 24 26 27 26 26 25 24 23 22 22 21 21 19 18 17 16 15 14 13 12 10 9 8 7 7 6 6 6 9 12 12 12 12 11 11 12 11 10 9 11 12 11 10 9 7 6 5 4 5 6 7 8 7 7
2 3 6 8 7 7 7 7 7 6 5 7 6 6 6 4 2 1 2 8 9 8 6 3 4 6 5 6 21 31 30 30 29 23 18 18 20 19 18 20 21 22 24 24 26 27 27 26 25 24 24 23 22 21 21 20 19 18 17 16 15 14 12 11 10 10 9 9 8 8 8 8 11 13 13 13 12 12 12 11 10 9 10 11 10 9 7 6 5 5 5 5 6 7 7 7 7
4 4 6 10 8 7 8 9 7 6 7 7 7 7 7 5 5 3 4 6 9 9 5 4 5 6 7 11 22 27 28 28 27 22 16 16 18 18 18 20 22 23 25 26 27 27 27 27 26 25 23 23 23 22 22 21 19 19 18 17 16 14 13 12 12 12 10 10 10 9 9 9 9 12 13 12 10 10 10 9 9 9 10 10 9 8 6 5 5 5 5 6 7 8 8 7 7
4 4 8 10 6 6 7 10 9 8 8 8 8 6 6 5 5 3 6 8 9 9 7 6 4 3 6 9 17 23 25 23 24 22 17 18 18 20 22 23 24 26 27 28 28 28 28 28 27 24 23 24 24 22 22 21 20 19 19 18 17 15 14 13 12 11 10 9 9 9 9 9 9 10 11 10 9 9 9 8 9 9 10 10 9 8 6 6 5 5 5 6 8 8 7 6 6
3 6 10 7 6 6 8 9 11 10 8 8 6 6 7 8 5 3 8 8 5 7 8 9 8 9 11 9 13 20 21 20 21 21 18 18 17 19 24 27 28 28 29 27 28 29 29 29 28 26 24 25 25 23 23 23 21 20 19 20 19 17 15 13 11 10 10 9 8 9 9 10 10 9 10 10 9 9 9 8 9 9 10 9 8 7 6 5 5 5 6 7 8 7 6 5 5
2 7 10 6 7 7 8 10 11 10 8 7 7 8 7 6 4 5 9 9 6 6 8 12 12 14 15 13 14 16 16 17 19 20 19 19 19 18 19 21 22 24 26 27 29 30 31 31 29 28 26 27 26 24 24 23 22 21 20 19 19 17 15 13 10 10 10 9 9 9 10 11 11 10 10 10 9 9 9 8 8 8 8 8 7 7 6 5 5 6 6 6 6 5 5 5 5
3 7 5 3 6 7 7 9 9 8 8 7 7 6 5 7 7 8 10 10 7 7 9 12 13 17 20 17 15 16 16 16 18 23 24 22 19 17 16 16 18 22 25 26 28 30 30 31 30 30 29 28 27 24 24 23 22 22 21 18 17 16 15 13 11 10 10 10 11 11 11 12 11 11 10 10 9 8 8 7 7 7 7 7 6 6 5 5 5 5 4 4 4 3 4 6 6
4 5 4 4 5 5 5 7 9 9 9 9 6 4 6 10 10 9 12 10 8 8 8 10 13 17 20 18 16 17 18 19 21 26 27 24 21 19 18 18 20 22 24 24 26 28 30 31 31 31 30 29 28 25 24 24 23 22 21 18 17 16 15 13 12 11 12 12 13 13 12 12 11 11 10 10 8 8 7 7 7 7 7 7 6 6 6 5 4 3 3 2 2 3 5 7 7
4 4 4 5 3 4 5 5 7 9 9 8 7 8 10 12 10 10 14 13 11 11 8 9 13 15 17 17 17 15 16 18 20 22 23 22 22 22 20 19 20 22 25 26 26 28 30 31 31 31 31 29 28 26 24 24 23 22 21 20 18 17 16 14 12 13 13 15 16 15 13 12 11 10 9 9 8 7 7 7 7 8 7 7 7 6 5 4 3 2 2 2 2 4 6 8 9
2 2 4 4 5 6 6 5 6 8 7 6 9 11 11 9 7 11 15 14 14 14 11 9 11 14 15 16 16 15 15 16 17 20 23 23 24 24 23 22 22 25 28 28 29 29 30 32 31 31 31 29 28 27 25 24 23 22 21 20 18 18 16 14 14 15 16 18 18 15 13 12 10 9 8 8 8 7 6 6 6 7 7 7 7 5 4 3 2 1 2 2 4 6 8 9 10
3 3 4 4 6 6 4 4 6 6 5 8 12 12 12 6 4 9 10 10 13 14 14 12 12 14 14 14 14 15 15 18 21 22 21 21 23 26 27 26 26 30 31 30 32 31 31 33 32 32 31 30 29 27 26 25 23 22 20 20 19 18 17 15 16 18 19 20 18 15 13 11 9 8 7 7 7 6 7 6 6 6 6 6 6 5 4 3 2 1 2 4 5 7 10 11 11
5 3 4 6 5 5 4 6 7 4 4 8 11 11 9 3 7 12 7 6 10 13 15 14 15 14 14 14 14 13 14 20 25 21 19 23 27 29 30 30 30 31 31 33 34 32 32 34 33 32 32 31 29 28 27 25 23 21 20 20 19 18 17 16 18 20 20 19 17 14 12 10 9 8 7 7 6 6 7 7 6 6 6 6 5 5 4 3 2 2 3 4 6 9 11 12 12
4 2 2 6 5 5 6 6 6 3 4 6 8 6 8 8 15 13 6 5 5 10 15 13 14 14 14 15 13 12 13 17 20 20 25 30 31 32 33 32 32 31 30 33 33 32 34 35 34 33 32 32 30 29 27 25 23 21 20 20 19 19 18 18 20 22 21 19 16 14 12 11 10 9 8 7 6 6 7 7 8 8 7 7 7 6 5 4 3 4 5 5 7 11 13 14 15
3 2 2 4 5 6 7 5 5 4 4 6 7 6 10 16 20 11 6 7 6 8 11 10 12 11 11 12 10 11 12 14 18 23 31 32 31 32 33 33 35 33 29 30 31 32 34 35 35 34 33 33 31 29 27 25 23 21 20 20 19 20 20 20 23 23 21 18 16 14 13 11 10 9 9 8 8 8 9 9 10 10 9 9 8 7 6 5 5 5 6 7 10 13 15 15 16
2 3 2 2 3 5 5 5 6 6 5 6 8 9 10 16 19 11 8 7 9 9 9 9 11 11 10 10 10 10 9 12 20 28 33 33 32 32 32 33 35 34 30 30 32 32 34 36 36 35 34 34 32 31 28 26 24 22 20 19 19 21 21 22 24 23 21 18 16 15 13 12 11 11 10 9 9 9 10 11 12 12 11 10 9 7 7 6 6 7 7 9 12 15 16 17 17
1 3 3 2 5 5 3 4 8 9 6 5 10 10 10 15 15 9 8 8 9 9 8 9 11 12 12 11 11 11 10 13 20 27 29 28 30 31 33 35 36 36 33 31 32 31 32 35 36 35 34 34 34 32 29 26 24 22 20 18 19 20 21 23 25 23 20 19 16 15 13 12 11 11 11 10 9 9 10 11 12 12 11 10 8 7 8 7 7 8 8 10 13 16 17 18 18
2 2 3 2 4 3 3 4 5 8 4 3 8 10 10 11 10 7 8 10 10 9 8 9 10 11 12 11 11 11 10 11 14 20 22 22 26 30 33 36 38 38 36 33 34 33 33 34 35 35 34 35 34 32 29 27 25 24 21 19 19 20 21 22 24 23 20 19 17 15 14 13 12 11 11 10 10 9 9 11 12 12 11 10 8 8 8 8 9 10 11 12 13 15 18 19 20
2 1 2 2 2 2 2 4 3 4 5 6 7 10 13 8 5 8 9 10 10 10 9 9 10 10 11 10 11 11 10 10 11 16 22 25 27 29 31 34 37 38 37 36 36 36 35 34 35 35 34 34 34 33 30 27 26 25 21 19 19 20 21 21 23 23 21 19 17 16 14 14 13 12 12 11 10 10 10 11 11 11 11 10 9 9 9 9 10 10 12 15 15 16 19 20 21
1 1 1 2 2 2 2 3 3 2 3 7 7 12 16 9 5 7 9 9 10 12 11 9 10 11 11 11 11 10 10 11 12 18 28 30 29 29 30 32 34 36 37 36 36 36 34 34 34 34 34 34 34 33 31 29 27 26 24 22 21 21 22 22 23 23 21 20 18 17 16 15 15 14 13 12 11 11 11 11 11 11 11 10 10 10 10 11 12 12 14 16 17 17 19 21 22
2 1 1 2 3 3 4 5 3 4 1 6 8 13 14 10 7 8 8 8 10 12 10 9 9 10 11 11 11 11 11 12 15 22 29 28 27 28 28 30 33 35 36 35 35 35 34 34 34 34 35 35 35 33 32 31 30 28 27 26 25 24 24 24 24 23 22 20 19 18 17 17 16 15 13 13 13 12 11 11 12 12 12 11 11 12 13 13 13 15 17 18 19 19 20 22 23
2 3 2 2 3 4 4 5 6 5 3 5 7 11 11 8 8 8 8 7 9 11 10 10 9 9 10 11 12 13 13 13 15 17 19 21 22 24 25 26 29 31 32 34 36 37 37 35 34 35 35 35 35 35 33 33 33 32 30 30 29 27 26 25 25 24 23 22 20 19 18 18 17 15 14 14 13 12 11 12 13 13 13 12 12 13 14 14 14 17 19 20 20 21 23 23 23
3 3 4 4 4 5 4 6 8 6 3 6 7 10 9 6 7 9 9 7 9 12 12 12 11 10 10 12 14 13 11 10 8 8 11 18 21 23 26 27 30 32 33 35 37 38 38 36 36 36 36 36 37 37 36 35 35 34 32 32 31 28 27 26 25 25 24 22 20 19 19 18 17 16 15 14 14 13 12 12 14 15 13 13 13 13 15 16 16 19 21 21 21 22 24 24 25
3 2 2 4 3 4 5 5 7 5 2 5 8 10 7 5 6 9 10 9 9 10 12 12 12 11 9 10 12 10 9 8 6 7 10 17 21 25 26 27 32 34 32 33 34 35 37 37 36 36 36 37 38 39 39 37 36 34 32 30 30 28 27 26 25 24 23 22 21 20 19 19 18 17 16 14 14 13 12 13 15 15 14 13 14 16 17 18 18 20 22 23 22 22 22 25 26
2 2 2 4 1 1 4 3 6 7 4 6 8 9 7 4 5 8 9 10 10 9 9 10 10 12 13 13 12 11 12 11 9 9 9 14 19 23 26 28 31 31 29 31 33 36 39 38 37 36 37 38 39 39 39 38 37 34 31 29 28 27 26 26 26 24 24 23 22 21 21 20 19 18 16 14 14 13 13 14 15 15 14 14 15 17 19 20 21 21 23 24 23 23 23 27 26
3 4 4 4 2 3 5 4 5 7 8 7 5 8 8 5 6 7 7 8 10 9 7 8 8 9 11 13 13 13 15 14 13 13 12 11 15 22 28 30 30 30 31 34 37 39 39 38 37 36 36 37 38 38 38 37 36 33 30 26 25 25 24 25 26 25 25 25 24 23 22 21 20 18 16 14 14 14 13 14 15 14 14 14 16 18 19 21 21 22 22 23 24 24 24 27 26
3 4 7 8 6 6 6 4 4 4 6 5 3 5 7 3 6 8 6 6 9 8 7 9 10 9 8 9 11 13 14 14 14 15 14 13 16 22 28 29 29 30 35 39 40 39 38 37 36 35 36 36 37 37 37 37 36 34 31 28 27 26 25 27 30 29 27 26 24 23 22 21 20 18 16 15 14 14 14 14 15 14 14 14 16 17 19 20 21 21 22 23 23 24 23 26 26
3 4 7 9 7 6 6 5 1 1 5 4 1 3 6 4 3 7 6 7 10 10 9 10 10 9 8 8 10 11 11 12 13 13 13 14 16 18 22 27 31 34 39 40 37 37 37 37 36 36 35 36 36 37 37 37 37 36 35 33 31 29 27 28 30 30 28 26 24 23 22 22 20 19 17 15 15 15 15 15 15 14 14 14 16 18 20 21 21 20 21 22 23 23 23 25 28
4 5 5 6 6 7 7 6 4 4 5 6 3 3 5 3 5 7 4 6 9 10 12 12 10 10 10 11 12 12 12 12 11 11 11 13 14 16 21 28 35 40 40 37 36 38 39 38 37 36 35 35 36 36 38 39 39 38 36 34 32 31 29 28 28 28 27 26 25 24 23 22 21 19 17 16 16 16 15 15 15 15 15 15 17 19 20 20 20 19 20 22 22 23 23 23 26
5 4 2 4 5 7 6 5 5 4 3 7 5 4 4 4 5 7 3 4 8 10 13 15 15 14 12 13 14 13 14 12 11 11 12 13 16 21 26 31 37 41 38 37 39 40 38 36 36 36 36 35 35 37 39 39 39 38 36 34 31 30 29 28 28 27 26 26 25 24 23 23 21 19 18 16 16 17 16 16 15 16 15 16 18 19 19 18 19 19 20 21 22 23 23 22 23
4 3 3 4 4 5 5 5 4 3 3 7 9 5 4 5 4 5 3 4 8 8 11 14 17 17 14 13 13 12 10 8 9 10 11 14 19 27 32 34 36 35 33 35 37 35 34 35 35 36 37 36 36 37 39 40 39 37 36 34 32 29 27 27 27 27 27 27 26 25 25 23 22 20 18 17 17 17 17 17 16 16 16 17 19 19 18 18 19 19 19 20 20 21 22 23 22
2 5 4 4 3 3 3 3 4 3 3 9 13 8 5 5 4 5 5 6 7 6 7 10 14 17 14 11 10 10 8 7 8 10 10 13 19 27 30 30 31 30 29 30 32 33 35 35 35 37 37 36 37 38 40 40 39 37 36 35 33 31 29 28 28 28 28 28 27 26 25 24 22 20 19 18 18 19 18 18 17 17 17 18 19 18 17 18 18 19 18 19 19 20 21 22 23
1 1 1 3 4 1 0 1 3 3 5 8 12 9 7 7 5 5 7 10 8 6 6 9 11 13 13 9 9 9 9 9 10 10 10 11 13 17 19 22 25 25 25 28 32 34 35 36 36 36 37 38 39 39 40 41 39 38 37 36 34 33 32 31 31 30 30 30 29 27 25 24 22 21 20 20 20 20 19 19 18 18 18 19 19 18 17 16 16 17 18 18 18 19 20 21 23
3 3 3 2 2 2 1 3 3 4 6 8 8 5 6 8 6 6 10 12 10 7 7 8 8 10 10 9 8 9 9 10 11 11 11 11 11 12 14 19 22 24 27 31 34 35 35 36 37 37 39 40 38 39 40 40 39 38 37 36 35 34 34 34 33 32 32 31 30 29 27 25 24 23 23 22 22 21 21 20 20 19 19 19 18 17 16 15 16 16 18 18 19 19 19 20 22
4 4 4 4 2 1 1 3 3 3 6 8 6 4 4 7 6 11 14 15 13 11 10 10 10 10 10 8 7 7 9 11 11 12 12 12 12 12 14 20 23 26 31 34 35 35 35 36 37 39 39 38 38 38 39 39 39 38 37 36 35 34 34 34 34 33 33 33 31 30 29 28 27 26 26 25 23 22 21 21 20 20 19 18 17 17 16 15 15 16 17 18 18 18 19 19 19
4 4 4 4 3 2 2 2 3 4 5 6 5 4 5 5 5 12 16 17 15 13 13 12 11 12 11 9 7 7 9 10 11 12 14 14 14 15 17 21 25 28 32 34 34 35 35 36 38 39 38 38 39 38 38 38 38 36 36 36 35 35 35 34 34 34 34 33 32 31 30 29 29 28 27 25 24 23 22 21 20 20 19 18 17 17 16 16 16 16 16 17 17 18 18 18 18
3 4 4 4 4 3 2 4 4 3 2 4 3 3 5 5 5 6 10 12 12 11 11 10 10 11 10 9 8 7 8 10 10 12 14 15 15 16 18 22 25 29 32 33 34 35 36 37 39 41 40 39 39 38 39 38 37 36 36 36 35 35 35 34 34 33 33 33 32 32 31 30 29 28 27 26 24 23 23 22 21 20 19 18 17 17 17 16 16 16 17 16 17 17 17 17 17
2 4 5 4 5 4 2 4 5 2 1 4 3 3 5 5 7 8 7 7 8 9 9 8 9 10 9 9 8 7 8 9 10 11 13 15 14 15 19 23 25 28 30 32 35 39 41 41 39 39 37 36 38 39 38 37 36 36 36 36 36 36 36 35 35 34 33 33 32 32 31 30 29 28 27 26 25 24 23 22 22 20 19 18 17 17 16 16 16 16 16 16 16 16 15 15 15
3 4 6 4 3 3 2 3 4 2 2 4 3 4 6 6 6 8 8 7 7 8 8 8 9 10 9 9 9 8 8 10 12 13 13 14 15 15 20 25 28 30 31 34 38 41 41 40 38 37 37 39 41 40 38 36 36 36 36 37 37 37 37 36 35 34 33 33 33 32 31 31 30 29 28 27 26 25 24 23 22 21 19 18 17 17 16 16 16 16 16 15 15 15 15 15 15
5 3 3 3 2 2 1 3 3 2 2 3 4 4 4 6 5 5 9 11 10 10 9 8 10 10 9 9 10 9 8 8 10 11 11 12 13 15 19 25 29 31 33 35 36 35 33 34 35 37 39 40 39 38 37 37 36 37 37 37 37 37 36 35 35 34 34 34 34 33 32 31 30 30 29 28 27 27 26 25 23 21 20 18 17 17 16 16 16 16 16 16 15 16 16 15 15
6 5 2 1 2 2 1 2 2 2 2 2 4 4 3 5 6 6 9 11 11 11 10 10 10 10 9 8 9 8 8 9 9 10 11 12 13 15 21 26 29 32 34 33 32 32 32 33 34 35 36 35 36 38 38 38 37 37 35 35 36 36 36 35 35 35 35 35 34 33 33 32 31 30 29 29 28 27 27 25 24 22 20 19 18 17 17 16 17 17 16 16 16 16 16 16 16
4 5 2 1 1 2 1 3 2 2 3 2 2 4 5 5 5 7 9 10 11 12 10 10 9 9 10 9 9 8 8 10 11 11 12 14 14 15 22 28 29 28 28 28 30 32 32 32 32 34 34 34 36 38 39 37 36 35 34 34 36 36 35 35 35 35 35 35 34 34 33 32 31 30 30 29 28 28 27 25 24 23 21 20 19 18 17 17 17 17 16 15 16 17 17 17 17
3 5 5 4 3 2 1 3 4 2 3 3 3 3 6 6 3 5 6 4 6 8 7 7 8 9 10 10 10 10 9 10 12 13 13 14 14 14 20 25 24 22 23 27 29 30 30 32 34 34 35 36 38 38 38 36 34 34 34 35 35 35 35 35 35 35 35 35 35 34 33 32 31 30 29 29 28 27 26 25 24 23 22 20 19 18 17 17 17 17 16 16 16 17 17 18 18
Wind_Direction
31 113 133 157 160 149 57 12 76 327 87 77 296 130 298 257 210 208 213 193 205 258 222 113 121 133 115 130 155 140 118 144 163 146 180 212 145 160 171 175 170 163 159 162 159 162 168 166 166 163 161 159 157 154 150 150 151 151 148 145 143 140 138 135 134 134 135 137 136 133 127 125 126 130 132 129 134 136 129 126 122 126 127 126 128 124 121 117 113 116 116 116 119 117 110 101 92
85 126 132 148 151 138 308 60 84 337 46 29 290 163 301 320 20 311 252 217 243 300 44 102 92 62 69 85 108 100 67 79 133 122 133 142 137 157 172 176 169 164 161 162 160 165 169 165 164 163 163 160 158 155 151 151 152 153 151 147 143 141 136 131 127 123 124 129 132 131 132 131 128 129 130 131 137 135 129 129 128 132 129 126 125 121 120 117 114 115 116 118 119 112 104 96 89
134 140 136 140 134 73 13 44 87 42 45 334 274 266 328 13 331 294 262 227 200 63 83 118 97 70 76 81 103 116 103 337 103 93 121 143 144 162 171 173 170 166 163 161 162 167 166 164 166 165 163 160 159 156 152 151 154 158 153 145 143 140 134 130 124 124 127 131 131 131 134 135 134 138 141 140 142 140 137 133 133 133 126 126 123 119 118 114 115 117 117 118 114 108 102 96 90
149 149 141 139 78 21 64 37 125 119 109 234 252 271 265 207 260 275 267 242 157 123 111 125 92 32 98 123 132 95 102 335 143 120 130 163 167 164 166 169 169 167 163 163 165 167 163 164 168 165 164 161 160 157 154 153 157 162 153 145 145 139 135 132 125 128 134 134 131 132 137 138 138 141 146 147 146 145 141 135 134 131 126 126 122 120 117 115 118 119 118 115 110 106 102 96 88
151 155 146 124 61 53 85 56 100 116 192 199 182 251 224 226 250 278 278 200 132 133 347 353 80 272 80 127 81 84 118 9 141 112 118 166 170 161 163 167 168 167 165 167 167 166 163 165 167 165 165 163 160 158 157 156 159 162 154 148 145 142 140 135 127 128 136 137 133 134 137 139 140 140 143 145 148 147 140 134 132 130 128 126 126 126 122 122 124 121 117 112 110 107 102 94 83
144 152 142 44 87 164 114 216 231 173 223 184 173 241 225 241 251 279 42 87 95 127 85 36 302 208 85 0 66 84 98 147 165 113 127 155 165 162 163 165 167 167 166 168 169 167 164 165 166 164 165 164 161 160 161 158 160 162 155 150 147 145 144 139 130 126 135 142 138 136 135 137 139 139 140 143 148 146 136 131 131 130 133 133 135 132 126 127 125 121 116 111 111 106 99 88 77
146 145 53 47 76 40 122 214 229 209 237 184 179 223 227 260 260 211 114 98 74 92 72 70 19 70 93 330 94 34 42 111 163 146 152 154 162 163 162 165 165 166 167 168 170 167 163 164 165 164 166 164 162 164 163 159 163 163 155 155 153 148 144 140 134 127 135 147 147 141 136 137 140 144 144 144 146 142 135 132 133 134 138 140 140 134 129 129 125 120 115 112 110 104 95 84 75
164 155 16 114 74 4 126 232 241 198 237 221 206 227 232 256 273 124 164 128 112 164 51 67 49 61 299 355 103 11 34 64 136 154 157 154 160 161 162 165 163 166 168 169 169 165 163 166 166 165 167 165 165 168 165 162 166 162 157 159 156 150 146 144 142 135 137 150 155 149 142 140 141 147 146 144 143 138 137 139 140 141 141 141 141 136 132 130 125 121 116 113 109 101 93 82 74
165 168 0 127 166 248 233 262 265 218 242 252 233 261 253 254 304 128 206 350 104 115 44 87 65 68 308 8 39 355 34 77 128 144 150 154 159 160 163 166 167 167 167 169 168 163 165 169 167 166 169 166 167 170 166 166 167 163 162 162 155 151 153 155 151 146 143 150 160 158 150 146 143 145 145 143 144 141 142 147 148 147 146 144 141 136 133 131 127 124 118 114 108 100 93 82 74
151 10 162 136 150 202 258 256 267 245 241 242 225 246 249 248 56 131 204 172 127 102 199 172 77 72 354 26 348 352 63 121 128 135 146 154 158 160 164 168 172 170 168 170 166 164 167 169 169 168 169 168 169 172 169 170 168 165 168 163 155 153 160 165 159 155 149 147 160 165 158 154 150 147 147 146 147 148 148 153 152 149 150 148 142 138 136 134 129 127 122 117 109 100 92 82 76
146 342 137 163 178 203 230 236 259 241 247 250 233 247 239 204 127 63 63 109 22 58 224 291 74 84 56 51 349 39 124 134 133 138 147 153 156 161 165 169 175 173 171 168 165 167 167 168 172 169 170 171 172 173 171 172 169 170 171 163 157 160 167 170 166 161 154 146 154 165 163 159 159 154 151 151 151 152 153 154 152 148 149 148 144 141 139 135 133 131 126 121 111 99 89 81 78
190 278 107 183 202 204 207 213 255 247 253 197 224 262 222 154 115 74 71 107 51 52 316 328 158 137 72 18 18 82 111 118 140 145 149 152 154 159 164 170 175 175 171 166 166 168 167 168 173 172 173 176 175 174 173 173 173 174 174 167 163 166 172 174 172 168 163 154 150 162 167 163 164 162 158 158 156 155 157 157 156 152 148 149 147 144 142 138 136 133 130 124 112 99 86 82 84
198 183 118 193 202 177 187 197 253 258 260 195 207 243 162 109 114 128 118 125 119 108 322 257 173 127 98 195 111 105 79 97 142 145 150 152 154 160 164 170 174 175 169 166 168 168 167 169 173 174 176 179 177 176 176 177 179 179 176 173 169 169 173 176 178 177 172 164 151 155 168 169 163 163 162 163 165 162 164 164 161 159 152 152 150 146 145 141 141 138 135 127 112 97 85 87 90
193 169 138 209 222 164 177 191 231 246 254 192 199 231 156 146 160 148 126 115 110 130 161 176 151 100 109 105 86 112 99 123 142 145 150 152 156 161 165 171 173 173 169 170 171 169 170 172 175 176 177 181 179 178 181 182 184 182 179 176 171 172 175 180 186 184 175 172 163 150 163 171 162 161 166 163 168 169 168 170 167 168 158 155 153 149 150 147 147 144 139 130 113 96 91 96 94
184 159 120 182 229 191 204 200 194 218 235 168 196 222 132 201 157 141 142 124 86 174 121 123 155 116 157 162 215 163 141 144 148 153 154 153 156 160 166 172 173 172 172 174 173 172 172 175 178 177 178 182 181 181 183 184 187 186 181 177 174 176 180 186 191 186 176 174 177 162 158 169 167 166 170 164 169 174 170 174 179 177 164 159 157 154 155 154 153 150 145 134 115 103 100 99 95
168 135 104 206 215 209 215 192 178 206 241 183 201 194 117 258 179 139 179 128 126 178 95 129 218 132 147 170 186 152 150 152 155 161 157 153 153 157 166 171 173 174 177 177 175 176 175 177 180 180 181 184 185 184 183 186 189 189 185 180 178 180 185 190 192 183 179 182 188 186 164 170 175 171 172 169 169 176 175 183 191 182 169 164 162 161 161 160 158 155 151 138 122 110 104 100 99
113 145 196 227 212 209 199 179 187 192 241 228 196 179 137 259 265 145 175 120 129 148 86 101 294 39 123 188 166 151 153 154 154 161 159 156 154 155 166 172 174 178 182 181 178 179 179 181 182 183 184 185 188 185 185 188 188 190 187 184 182 184 188 192 192 183 184 191 192 197 180 175 180 176 175 173 172 181 184 193 196 181 173 170 168 169 167 166 164 163 155 138 126 112 104 102 104
152 178 216 227 211 205 185 180 196 171 211 233 207 186 167 202 230 185 140 121 135 137 108 94 28 20 49 133 153 150 151 152 153 160 166 165 159 157 167 175 178 182 184 183 183 183 183 185 185 187 186 186 189 186 187 187 186 191 189 187 187 188 190 193 194 189 193 196 193 200 195 186 181 181 183 178 177 184 188 192 189 179 178 176 174 176 174 178 176 166 152 137 128 113 108 110 109
182 175 213 229 212 190 180 179 188 177 193 223 223 188 171 197 192 158 148 164 159 140 124 102 73 44 59 113 139 144 148 150 151 158 175 179 167 162 166 177 182 184 185 185 187 187 187 188 187 189 188 188 190 188 190 187 186 192 191 190 191 191 191 193 196 195 201 204 200 202 199 195 185 183 186 185 185 184 184 184 180 179 180 179 180 184 187 186 176 164 151 137 125 112 112 114 112
201 184 219 232 198 181 193 182 188 199 188 202 224 183 172 210 200 170 161 181 184 169 153 124 134 133 115 128 138 143 147 150 154 161 182 191 182 171 170 178 184 186 187 187 189 190 191 190 189 190 189 189 190 190 190 188 188 193 194 193 194 194 195 198 200 200 207 214 214 210 202 197 191 185 182 184 188 184 184 183 179 180 181 182 187 189 185 179 171 164 150 131 119 109 111 113 117
199 201 224 222 161 186 212 190 193 203 194 198 205 183 195 196 197 212 162 171 212 203 177 158 174 162 145 151 149 148 150 153 160 170 187 197 197 187 181 182 184 186 186 186 189 192 193 191 190 191 191 192 192 190 190 190 191 195 197 200 199 195 200 205 204 206 212 218 220 216 205 196 190 185 180 179 179 177 179 181 181 182 181 184 186 180 175 174 170 158 139 127 118 104 103 112 123
240 231 230 212 164 194 210 195 198 198 197 205 190 192 195 157 186 219 168 176 211 215 194 173 167 156 154 163 159 154 157 161 168 178 190 199 203 201 194 187 185 185 184 188 191 193 194 192 192 192 193 194 193 191 191 192 194 197 200 203 201 198 204 208 207 212 213 213 213 209 198 190 185 181 180 178 173 169 168 172 174 176 178 180 178 175 176 175 160 146 135 126 119 103 104 116 123
244 248 249 228 193 200 202 193 203 193 185 203 200 195 147 133 193 212 188 189 190 200 198 173 160 158 159 162 162 161 166 172 177 185 191 194 200 204 202 193 188 187 188 192 193 194 195 194 193 193 194 195 194 193 193 195 198 203 204 205 204 201 206 208 209 212 210 205 200 195 185 182 180 178 179 178 175 169 165 166 169 175 177 181 184 184 180 166 150 143 141 132 119 109 120 126 127
243 256 320 299 229 223 221 199 200 191 191 205 206 205 171 174 198 208 202 195 176 193 196 167 160 159 156 160 170 171 172 179 185 189 190 190 194 200 203 200 195 191 193 197 196 196 195 194 194 194 195 195 194 194 195 198 202 207 207 207 206 204 209 210 208 209 205 196 187 182 176 174 174 176 179 178 177 173 171 175 180 188 188 195 200 188 174 158 150 151 153 145 125 133 140 137 138
253 258 319 325 289 281 292 265 217 201 204 209 207 220 211 198 204 220 214 196 176 184 184 168 163 158 159 168 175 175 177 183 185 184 187 189 190 197 205 206 201 197 198 198 199 198 197 196 195 195 196 195 194 195 197 200 204 208 209 208 206 205 210 209 205 204 198 186 179 176 172 171 171 174 178 178 180 177 178 186 192 197 197 203 198 178 169 165 168 174 170 167 150 154 150 145 148
261 281 302 323 310 300 309 302 248 218 210 195 204 226 231 218 222 236 224 200 184 177 171 170 166 166 169 173 175 176 180 183 182 181 184 187 188 195 203 206 204 203 202 199 198 199 198 197 196 197 197 195 196 197 199 201 205 209 209 208 206 206 209 206 202 200 190 180 177 176 174 174 174 178 182 185 190 187 190 195 194 195 193 194 187 175 181 189 210 231 199 184 170 165 155 151 155
315 305 290 281 279 288 291 294 274 251 234 199 198 223 235 229 227 239 234 211 199 185 177 171 167 177 179 176 177 178 181 185 184 180 178 182 189 195 198 202 205 206 204 200 199 199 197 198 198 198 198 197 197 199 202 203 206 209 208 207 206 206 207 205 201 194 185 180 179 179 179 179 181 186 192 200 204 205 207 207 202 194 189 190 190 196 208 218 245 247 198 184 178 169 157 154 162
313 306 307 283 279 290 263 272 276 253 241 210 193 221 240 231 229 229 225 224 213 202 199 183 172 182 183 181 183 181 188 189 182 175 175 187 194 195 195 198 203 208 207 203 200 197 196 198 199 200 200 200 199 201 203 203 206 207 207 208 207 207 207 204 199 191 185 182 182 184 185 186 189 194 203 214 219 222 224 223 219 211 207 212 215 223 230 238 247 218 188 180 174 168 158 157 166
294 299 309 291 312 292 247 253 262 221 220 195 161 219 240 230 235 224 197 209 203 209 216 200 183 184 184 184 184 186 191 185 178 181 191 195 196 195 195 195 199 207 210 207 202 197 197 198 199 201 202 202 202 201 202 203 205 206 207 208 209 209 208 203 196 189 186 186 186 188 190 192 196 205 214 226 232 238 243 243 240 233 230 232 235 241 245 243 232 196 181 176 168 165 161 162 167
282 261 211 266 311 269 229 220 250 251 237 180 150 217 229 230 236 216 186 193 164 205 220 199 188 184 186 187 185 194 191 179 183 194 198 198 198 197 195 193 197 204 210 210 205 199 197 197 199 200 202 204 204 202 202 203 203 203 206 208 211 211 208 202 194 189 190 191 191 192 195 198 205 216 223 233 238 243 249 249 249 246 243 246 248 248 247 239 217 191 184 176 165 166 166 167 169
304 275 229 201 236 243 216 200 219 231 236 181 177 225 227 230 237 213 196 193 163 197 211 187 185 180 185 188 187 199 193 189 196 199 201 199 196 195 194 193 195 201 206 209 207 202 198 197 199 200 202 204 204 202 201 201 201 200 201 204 207 209 208 201 192 191 195 197 197 198 202 205 212 222 228 235 241 246 249 249 250 247 246 249 248 240 236 228 206 189 187 179 165 166 167 166 169
355 266 268 205 217 239 259 233 207 215 241 185 188 228 236 231 237 214 194 198 180 195 200 185 187 182 185 188 189 198 195 199 205 206 207 201 195 193 193 193 195 198 203 208 207 204 200 198 200 201 202 203 203 202 200 199 198 196 197 198 202 206 206 201 194 194 200 203 203 205 207 210 216 224 231 237 245 249 248 249 249 245 243 241 235 226 224 218 199 183 183 186 174 167 167 165 166
341 222 235 248 234 229 265 270 212 203 239 235 210 229 239 232 232 214 197 201 195 200 198 185 187 185 187 189 190 197 197 199 207 213 213 204 198 196 193 194 195 197 201 206 207 204 202 200 201 203 204 204 203 201 200 199 197 195 193 193 199 203 203 200 196 199 205 208 209 209 210 215 220 225 232 240 247 248 245 247 244 238 234 228 219 215 214 207 197 184 175 184 186 175 169 166 164
306 287 255 304 283 198 239 287 248 175 186 232 243 239 240 237 213 207 207 201 198 210 205 185 190 191 187 191 194 196 196 198 206 212 211 207 202 198 196 196 196 196 199 205 207 206 204 201 201 204 205 205 204 201 199 200 198 194 191 190 195 199 199 197 198 203 207 211 213 213 215 220 225 228 233 241 246 241 236 238 236 229 223 214 208 207 204 195 192 192 180 179 185 180 173 168 164
101 22 306 315 305 205 208 259 284 60 171 218 242 248 244 244 235 220 213 196 194 213 209 184 190 196 191 190 194 197 195 200 207 209 209 206 201 198 196 197 196 195 198 203 207 208 206 203 202 204 205 205 205 203 201 200 200 197 193 192 196 198 199 199 203 207 210 214 217 217 219 223 227 230 233 240 244 238 231 230 230 221 214 208 202 198 196 192 186 190 188 181 177 175 175 171 164
89 77 164 271 303 248 237 251 276 13 318 231 234 250 248 239 243 246 234 207 197 215 213 192 188 193 198 193 192 196 196 205 211 211 210 205 199 196 194 195 196 195 196 201 205 207 207 204 202 203 205 205 204 204 203 202 201 199 197 197 200 202 202 205 209 212 215 218 220 219 221 223 226 228 232 239 243 237 229 228 226 217 211 207 201 197 194 193 189 187 188 184 173 166 167 167 163
334 314 271 281 291 273 278 281 302 4 339 253 240 257 261 245 239 242 241 222 209 217 213 209 199 191 198 196 194 193 196 211 212 206 204 198 194 193 192 192 192 193 196 199 203 206 207 205 202 202 204 204 203 203 202 202 201 198 198 200 202 204 204 208 214 217 220 222 222 223 223 223 225 227 229 237 241 238 228 224 223 217 212 207 205 201 195 193 192 188 184 181 174 164 159 160 163
302 285 282 286 270 268 277 276 293 327 322 274 271 275 278 267 249 244 240 225 217 216 209 211 209 203 203 201 201 194 195 213 198 168 175 184 186 187 189 190 190 193 195 199 202 204 206 206 204 203 202 202 203 203 203 204 203 200 199 200 202 206 208 210 214 219 224 224 224 224 223 223 226 226 228 235 240 238 231 223 221 218 212 206 202 196 193 192 190 189 184 175 171 169 163 162 165
274 281 292 279 280 294 278 265 286 299 281 275 285 285 277 264 257 252 241 229 227 219 208 207 201 201 207 210 212 200 198 211 181 156 168 177 179 182 186 189 193 197 196 197 202 204 206 207 206 204 202 201 202 203 203 205 205 204 203 202 203 207 211 212 215 222 226 225 224 223 222 224 226 226 228 235 239 239 233 225 221 217 209 203 198 190 190 193 190 190 189 180 171 167 165 166 169
237 232 262 266 295 0 270 285 314 310 291 268 284 292 274 243 263 268 248 235 239 231 217 216 204 198 202 205 210 204 203 205 190 187 182 172 174 177 183 191 195 196 195 197 200 203 206 206 205 204 202 202 202 203 204 205 206 206 207 207 207 211 214 214 216 222 225 224 221 220 221 223 225 226 228 236 240 240 234 226 222 215 206 202 199 192 191 194 194 190 190 187 179 170 166 170 175
242 209 210 241 224 207 240 295 330 319 301 271 269 293 277 219 223 259 263 248 247 242 227 231 229 217 214 207 203 202 203 201 193 195 188 172 174 180 186 192 193 193 195 199 202 204 205 206 205 203 202 202 202 203 203 203 203 203 203 203 204 207 209 209 210 213 217 217 217 218 220 222 223 225 230 235 239 239 233 227 223 214 206 203 202 198 196 198 197 194 192 193 191 185 178 177 182
279 229 214 220 216 217 241 294 345 339 298 268 196 258 274 237 210 229 246 252 245 241 228 227 230 225 224 220 211 208 207 202 197 196 188 179 181 184 187 190 190 194 199 203 205 205 205 205 205 203 202 202 202 202 201 201 200 199 196 192 191 193 195 199 203 205 208 211 215 217 219 221 222 224 229 233 236 237 231 226 222 215 208 205 204 203 202 202 201 198 199 201 202 200 193 185 188
266 238 212 214 209 214 234 253 269 210 257 269 146 239 278 324 282 236 233 248 240 231 225 225 229 224 217 221 221 221 220 211 205 200 187 183 186 184 185 187 190 199 205 204 203 205 205 205 204 203 203 202 201 201 201 200 198 198 197 194 193 192 192 197 202 205 208 211 215 216 217 219 221 224 227 231 233 233 228 222 218 214 211 209 208 207 206 207 206 203 204 207 207 207 203 195 195
246 236 195 196 199 207 221 217 205 214 257 290 301 258 275 301 280 262 248 263 256 236 227 226 225 221 216 220 220 221 225 218 209 200 181 182 187 185 188 190 195 203 206 200 200 205 205 204 203 203 203 202 201 201 201 200 199 198 198 197 197 197 197 198 201 203 207 211 213 214 216 218 221 223 226 229 231 229 223 218 214 211 210 210 211 211 211 210 207 205 207 210 211 212 213 210 204
244 252 211 209 207 211 213 201 214 223 245 279 264 216 252 262 257 267 252 245 259 242 228 226 223 219 213 218 220 218 223 220 211 201 185 184 186 188 194 197 201 205 203 197 199 203 203 202 202 202 202 202 202 202 202 201 201 200 198 196 197 198 199 200 201 202 204 208 211 212 214 216 219 222 224 227 228 226 221 216 213 210 210 212 212 212 213 211 209 209 211 213 215 217 220 222 217
250 348 332 274 238 224 216 192 214 222 195 252 252 197 220 267 251 251 235 221 240 238 232 229 226 224 214 214 221 220 222 222 217 209 196 192 191 191 196 200 204 206 202 198 199 200 200 200 200 201 202 202 202 203 202 202 202 201 199 198 198 196 196 197 198 199 201 204 207 209 211 214 217 220 222 224 223 222 220 216 214 212 211 214 214 213 213 213 214 217 220 222 223 223 223 224 225
304 10 341 323 309 227 219 192 189 218 220 245 249 217 201 256 245 219 224 226 219 217 233 235 232 232 222 210 217 218 211 207 210 213 209 204 201 198 197 199 203 202 199 196 196 198 198 198 199 200 202 202 203 203 203 203 202 202 201 201 199 196 193 192 192 194 197 200 203 206 209 212 216 219 220 219 218 218 218 215 214 214 214 216 218 220 221 219 221 225 229 229 228 227 226 225 226
282 7 26 3 329 322 101 229 173 206 242 242 246 228 204 235 239 217 236 241 229 215 228 240 242 243 234 213 204 209 206 201 200 206 211 208 205 203 199 200 200 196 193 193 196 198 197 196 197 198 201 203 203 203 203 203 202 202 203 202 201 197 194 193 192 193 195 197 201 204 207 210 213 214 215 215 214 214 215 213 213 215 217 220 222 227 231 231 232 233 233 232 230 228 227 227 226
159 155 127 94 312 10 46 242 189 207 244 245 243 222 216 241 234 220 244 251 246 235 231 242 252 255 252 231 206 200 197 196 197 200 206 206 203 200 196 197 195 190 192 195 197 197 196 196 197 197 201 202 202 202 202 202 202 202 202 202 201 198 197 196 195 196 197 198 201 204 205 207 208 209 210 212 212 212 213 213 215 218 222 225 230 233 235 237 237 237 236 233 232 230 229 229 229
167 160 146 147 164 116 222 243 216 219 250 256 246 219 242 268 232 208 229 247 250 250 246 246 252 257 261 252 223 205 198 195 196 197 200 204 204 201 197 196 193 192 195 196 197 197 195 195 196 199 201 201 200 202 202 202 202 202 202 202 201 199 198 198 197 199 200 201 203 207 209 210 211 211 211 212 211 211 213 216 218 223 226 230 235 238 238 238 237 237 236 235 234 234 232 232 231
181 161 158 173 178 186 210 210 206 223 254 257 239 210 221 246 223 198 210 230 239 246 250 248 253 257 259 259 235 210 207 202 197 197 199 202 203 201 200 198 195 196 197 196 196 196 196 196 197 199 200 199 199 200 201 202 202 202 202 202 202 200 200 199 199 202 203 203 206 209 211 213 215 215 214 213 211 212 215 218 221 226 231 234 237 239 239 237 236 234 234 234 234 234 233 232 231
199 158 157 193 201 211 245 231 217 211 255 256 214 203 217 230 262 228 213 226 228 235 248 249 255 259 258 259 242 211 207 209 205 201 199 202 204 202 201 200 199 200 198 197 195 195 197 198 198 199 199 198 197 199 201 202 202 202 203 202 201 201 201 200 199 203 205 206 209 211 213 215 217 217 215 213 212 214 217 221 224 227 231 235 237 237 237 235 234 234 233 233 233 232 232 232 232
187 171 187 206 190 179 214 251 251 213 248 271 228 221 247 253 274 264 235 236 239 238 244 239 244 254 257 260 252 222 204 204 207 206 201 201 202 203 204 203 203 202 199 197 197 197 198 199 198 198 196 195 197 199 201 201 202 202 202 202 201 200 201 201 200 202 205 207 211 213 214 215 216 216 215 214 214 217 220 223 226 228 230 234 235 234 234 234 234 236 236 236 235 233 231 230 231
134 170 194 194 175 172 180 240 260 237 244 277 246 218 230 230 254 256 232 237 255 250 244 241 243 249 253 257 257 239 213 205 206 206 205 203 201 201 203 205 206 204 200 200 201 200 200 200 197 194 193 195 197 198 198 200 202 201 202 202 201 201 202 201 201 204 205 206 209 210 212 214 215 217 216 216 216 218 221 223 226 228 230 231 231 231 231 232 233 235 236 236 235 233 230 227 226
200 220 188 150 159 189 222 220 221 226 237 268 271 255 230 221 237 233 218 228 244 248 248 253 252 251 251 253 257 248 226 217 212 207 208 208 206 204 203 206 207 204 202 203 204 202 200 199 196 194 196 197 196 195 196 200 202 202 203 202 200 201 202 201 202 204 205 206 208 210 211 214 216 217 217 218 218 218 219 222 224 226 228 228 227 227 228 230 232 233 234 234 233 230 227 223 220
225 263 323 71 153 146 190 229 199 202 220 240 275 288 268 234 222 201 204 216 228 238 244 249 250 253 253 247 248 242 223 220 218 211 212 210 210 209 205 207 208 204 202 201 199 198 199 198 195 195 197 196 194 194 196 199 201 202 202 200 199 201 200 200 201 204 204 206 209 211 212 214 216 217 218 220 220 218 219 220 221 223 224 224 224 224 226 228 230 232 233 233 231 226 222 219 215
201 227 232 147 139 105 106 265 248 191 186 187 234 271 272 251 216 206 212 210 213 221 231 245 255 260 262 257 249 235 218 217 215 211 213 212 212 211 209 210 210 205 200 196 194 196 197 196 194 194 195 194 195 196 197 198 199 200 200 198 198 200 199 199 201 203 205 207 210 212 213 214 216 217 219 220 219 219 219 219 220 222 223 223 223 224 225 227 228 229 229 229 226 221 216 213 211
189 205 196 181 180 138 138 266 274 237 185 180 189 241 267 259 216 205 219 230 234 223 215 240 260 263 265 264 256 242 222 214 214 211 211 211 210 211 211 210 204 195 192 192 193 193 193 194 195 194 193 194 196 196 196 197 196 198 199 197 197 198 198 198 200 202 204 207 210 212 214 214 215 217 219 219 219 218 218 219 220 222 223 222 223 225 226 227 227 226 224 221 219 215 211 209 207
Height
777 777 778 779 780 781 783 784 795 798 798 811 806 803 797 785 785 785 784 783 782 777 770 771 771 771 773 776 777 775 776 785 792 804 809 795 790 795 796 798 798 800 802 804 806 809 811 812 814 815 816 817 818 819 820 821 822 822 823 823 823 823 823 823 823 823 824 824 826 827 829 830 831 832 833 833 834 835 836 837 838 839 840 841 842 843 844 845 846 847 847 848 849 849 850 851 852
777 778 778 780 781 783 788 788 801 805 802 812 807 802 795 784 786 787 785 784 782 776 770 770 771 771 770 769 771 776 779 778 778 786 791 789 791 794 796 798 798 800 801 803 806 808 810 812 814 815 816 817 818 819 820 821 822 823 823 824 824 824 824 824 824 824 825 826 827 828 830 831 832 833 834 835 835 836 837 837 838 839 840 841 842 844 844 846 847 847 848 849 850 850 851 852 852
777 778 778 781 783 785 790 791 804 811 809 814 806 798 792 789 789 784 780 777 776 774 773 771 771 773 772 775 775 778 784 779 776 781 787 790 791 792 795 797 798 800 801 803 805 807 809 812 813 814 815 816 818 819 820 821 822 823 824 824 824 824 824 824 824 825 826 827 828 829 830 831 832 833 834 835 836 837 837 838 839 840 841 842 843 844 845 846 847 848 849 850 850 851 852 853 853
778 778 778 779 784 789 793 797 804 809 813 815 806 797 792 791 787 781 776 772 771 772 775 774 774 772 772 780 776 777 784 781 777 779 785 788 788 790 792 796 798 800 801 803 805 807 809 811 813 814 815 816 817 819 820 821 822 823 824 825 825 825 825 825 825 826 827 828 829 830 830 831 832 833 835 835 836 837 838 839 839 840 841 843 844 845 846 847 848 849 849 850 851 852 853 853 853
778 778 778 778 787 791 794 802 807 808 808 806 802 797 792 788 783 780 776 771 770 772 775 776 778 773 771 776 774 780 784 781 778 776 782 786 788 789 791 795 797 799 801 803 804 806 808 811 813 814 815 816 817 818 819 820 822 823 824 825 825 826 826 826 827 827 828 828 829 830 831 832 833 834 835 836 837 838 839 839 840 841 842 843 844 845 846 847 848 849 850 851 852 852 853 854 854
778 780 779 779 785 788 796 806 807 808 799 794 796 793 789 783 779 779 775 771 770 771 772 776 780 776 776 776 773 781 782 780 778 775 780 786 788 790 791 794 797 799 800 802 804 806 808 810 812 814 815 816 817 818 819 820 821 822 824 825 826 826 827 828 828 828 829 829 830 830 831 832 833 834 835 837 838 838 839 840 841 842 843 844 845 845 846 847 848 850 851 851 852 853 853 854 854
777 780 782 784 788 789 802 807 803 804 795 790 791 787 785 779 776 777 776 774 773 772 772 775 777 779 783 778 776 780 778 778 776 776 780 784 789 790 792 794 796 799 800 802 804 806 808 810 812 814 815 816 817 818 819 820 821 822 823 824 826 827 828 829 829 830 830 830 830 831 831 832 833 834 836 837 838 839 840 841 842 842 843 844 845 846 847 848 849 850 851 852 852 853 854 854 854
776 780 783 788 795 797 804 805 800 801 794 788 786 782 780 775 773 776 777 777 777 775 774 775 774 782 786 779 782 782 777 779 777 777 780 784 789 790 793 795 796 799 801 802 804 806 808 810 812 813 815 816 817 818 819 820 821 822 823 824 825 827 828 830 830 831 831 831 831 832 832 833 834 835 836 837 839 840 841 842 842 843 844 844 845 846 847 849 850 851 851 852 853 853 854 854 854
776 780 785 790 798 803 805 803 799 797 792 788 784 779 776 772 772 775 776 777 777 776 778 775 772 783 788 783 786 783 780 782 780 781 782 785 788 789 793 795 796 798 800 802 804 806 808 810 812 813 815 816 817 818 820 820 821 822 823 824 825 827 828 830 831 831 831 832 832 833 833 834 834 835 837 838 839 841 842 843 843 844 844 845 846 847 848 849 850 851 852 852 853 854 854 854 854
778 781 786 793 800 806 808 805 799 794 791 786 781 777 774 772 772 773 776 778 777 778 778 773 773 783 788 789 790 785 786 786 783 785 785 787 789 790 793 795 797 798 800 802 804 806 808 810 812 813 815 816 817 818 819 820 821 822 822 823 824 826 828 830 831 831 832 832 833 834 834 835 835 836 837 838 840 841 842 843 844 844 845 846 846 848 849 850 851 851 852 853 853 854 854 854 854
781 783 785 795 803 808 809 804 797 792 789 784 780 774 772 771 771 774 776 779 779 779 778 773 778 783 786 790 792 789 789 788 786 787 788 789 790 791 794 796 799 799 800 802 804 806 808 810 812 813 815 816 817 818 819 820 821 822 823 823 824 826 828 829 831 832 832 833 834 834 835 835 836 836 838 839 840 841 842 843 844 845 845 846 847 848 849 850 851 852 852 853 854 854 854 855 854
784 786 787 797 802 803 803 801 795 790 789 786 781 773 771 770 771 775 778 781 780 781 779 776 778 778 786 791 791 791 790 791 790 788 790 791 792 793 795 797 799 801 802 803 804 806 808 810 812 814 815 816 817 818 819 820 821 822 823 823 824 826 827 829 830 832 833 834 834 835 835 836 837 837 838 839 840 842 843 844 844 845 846 846 847 849 850 851 851 852 853 853 854 854 855 855 855
783 786 789 797 798 797 798 799 794 790 790 786 780 772 769 770 772 775 777 780 778 782 780 774 774 773 784 790 788 791 791 793 792 791 791 791 793 794 796 798 800 802 803 804 805 807 808 810 811 813 815 816 817 818 819 820 821 822 823 823 824 826 827 829 830 832 833 834 835 835 835 836 837 838 839 840 841 842 843 844 845 846 846 847 848 849 850 851 852 852 853 853 854 855 855 855 855
779 782 786 794 794 793 794 796 794 794 790 781 776 770 768 770 770 771 773 779 777 777 775 770 770 774 784 788 790 792 791 794 794 795 794 793 794 794 797 799 801 803 804 805 806 807 808 809 811 812 814 816 817 818 819 820 821 822 823 823 825 826 827 829 830 832 834 834 835 835 836 837 838 839 840 840 841 843 844 845 845 846 846 847 848 849 850 851 852 852 853 854 854 855 855 855 855
775 779 783 790 792 792 791 791 790 794 788 776 773 769 769 767 766 770 769 776 778 770 770 769 768 774 782 785 789 788 787 791 795 797 796 796 795 795 799 800 802 803 805 806 807 808 808 809 810 811 813 814 816 817 819 820 821 822 823 824 825 826 827 828 830 832 834 834 835 836 836 837 838 839 840 840 841 842 844 845 846 846 847 847 849 850 851 851 852 853 853 854 855 855 855 856 855
772 776 783 789 791 792 790 787 788 792 785 774 772 768 771 769 763 769 764 766 775 769 769 774 769 771 777 779 780 780 782 787 793 799 798 797 797 797 800 801 803 804 805 806 807 808 808 809 810 811 812 813 815 817 818 820 821 822 823 824 825 826 827 828 830 832 833 834 835 836 837 837 838 839 840 841 841 842 844 845 846 846 847 848 849 850 851 852 853 853 854 854 855 855 856 856 856
772 776 785 789 790 791 786 784 785 786 780 772 772 769 773 773 764 764 759 760 772 773 772 775 771 769 773 775 775 776 780 783 789 797 799 797 797 798 800 802 803 804 805 806 806 807 808 809 809 810 811 813 814 816 817 818 820 821 822 824 825 826 827 828 829 831 833 834 835 836 837 837 837 839 840 841 841 842 843 845 846 846 847 848 849 850 851 852 853 853 854 854 855 855 856 856 856
773 778 785 785 784 784 778 777 777 775 774 770 770 770 771 774 769 763 762 764 769 773 774 774 774 773 773 773 774 776 780 782 786 794 799 797 795 796 798 800 802 803 804 805 806 806 807 808 809 810 811 812 814 815 816 817 819 820 822 823 825 826 827 828 829 831 832 833 835 836 836 837 837 838 839 840 841 842 843 844 846 847 848 848 849 850 852 853 853 854 854 855 855 855 856 856 856
771 775 781 776 772 773 768 768 770 769 770 767 765 768 769 770 767 764 768 771 770 774 778 777 778 779 777 775 777 779 781 783 785 792 798 798 795 794 796 799 800 801 802 802 804 805 806 807 808 809 810 812 813 814 815 816 818 819 821 823 824 825 826 827 828 830 831 832 834 835 836 836 837 838 839 840 841 842 843 844 846 847 848 849 850 851 852 853 853 854 854 855 855 856 856 856 856
768 771 777 769 763 766 763 763 765 764 765 765 764 765 768 767 764 764 769 772 770 771 775 778 781 782 782 780 779 780 782 785 786 790 797 798 796 793 793 795 796 797 798 800 801 803 805 806 807 808 810 811 812 813 814 815 817 818 820 822 823 824 825 826 828 829 830 832 833 834 835 836 837 838 839 840 841 842 843 844 845 846 848 848 850 850 851 852 853 854 854 855 855 856 856 856 856
767 767 769 762 760 765 763 761 761 761 761 761 763 765 768 765 762 764 767 774 775 770 766 768 773 777 782 782 780 780 781 784 786 789 793 797 798 795 792 791 792 793 795 798 800 802 803 804 806 807 809 810 811 812 813 814 816 817 819 821 822 823 824 825 827 829 830 831 833 834 835 836 837 838 839 840 841 842 843 844 845 846 847 848 849 850 851 852 853 854 855 855 856 856 856 856 857
767 763 759 758 759 762 760 759 757 758 759 760 762 765 764 762 762 763 765 771 772 767 761 758 762 770 776 779 779 779 780 782 783 786 790 794 797 797 795 793 793 794 796 797 798 800 801 803 804 806 807 808 810 811 812 813 815 816 818 820 821 823 823 825 826 828 829 831 832 833 834 836 837 838 839 840 841 842 843 844 845 846 847 848 849 850 851 852 853 854 854 855 855 856 856 856 857
768 762 757 758 759 758 756 756 756 756 759 761 760 759 758 763 764 760 760 763 759 757 756 754 757 762 768 774 777 777 778 780 780 781 785 790 795 798 798 797 796 795 796 796 798 799 800 802 803 804 806 807 808 809 811 812 814 815 817 819 820 822 823 824 826 827 828 830 831 833 834 835 837 838 839 840 841 842 843 844 845 846 847 848 849 850 851 852 853 854 854 855 855 855 856 856 857
769 766 760 760 758 757 755 753 754 754 757 756 755 755 758 763 761 756 756 755 751 751 753 753 755 759 764 771 773 772 773 775 775 777 781 787 792 796 798 797 797 796 796 797 798 799 800 801 802 803 804 805 807 808 809 811 813 815 817 818 820 821 822 824 825 826 828 830 831 833 834 835 836 838 839 840 841 842 843 844 845 846 847 848 849 850 851 852 853 853 854 854 855 855 856 856 857
768 768 765 763 760 759 757 755 754 753 753 753 754 756 756 755 754 752 751 750 747 748 752 754 757 760 764 767 768 769 771 772 774 777 782 786 790 793 796 797 797 797 796 796 798 799 799 800 801 801 802 804 805 806 808 809 811 814 816 817 818 820 821 823 825 826 827 829 831 832 834 835 836 838 839 840 841 842 843 844 845 846 847 848 849 850 851 851 852 853 854 854 854 855 856 856 857
769 769 766 765 762 759 758 756 755 754 752 752 756 758 755 751 752 751 745 745 744 743 749 754 759 762 762 762 764 766 768 771 773 775 779 783 787 790 792 794 796 795 795 795 796 797 798 799 800 800 801 802 804 805 806 807 809 812 814 816 817 819 820 822 824 825 827 829 830 832 833 835 836 837 839 840 841 842 843 844 845 846 846 847 848 849 850 851 852 852 853 853 854 855 855 856 857
770 769 766 764 763 760 758 757 755 755 753 751 755 757 754 752 756 753 743 741 741 740 745 750 757 761 760 759 759 762 764 766 768 771 777 782 784 785 787 790 792 792 793 793 792 794 797 798 798 799 800 801 802 803 804 806 808 810 813 815 816 817 819 821 823 824 826 828 830 832 833 834 836 837 838 839 841 842 843 844 845 845 846 847 848 849 850 850 851 852 853 853 854 854 855 856 857
768 767 767 764 762 760 759 757 756 756 754 749 751 754 754 754 754 747 741 740 740 741 743 746 752 755 756 757 757 759 760 761 765 769 773 775 776 779 781 784 788 791 791 791 790 792 794 795 797 798 799 800 801 802 803 804 806 809 811 813 815 817 819 821 822 824 826 828 829 831 833 834 835 836 838 839 840 841 842 843 844 845 846 847 848 849 849 850 851 852 852 853 853 854 855 856 857
767 767 769 766 763 762 758 756 755 755 753 747 750 759 760 754 745 739 739 740 740 743 743 744 749 751 752 754 755 757 757 760 765 766 766 767 769 773 775 779 784 789 791 791 790 790 792 793 795 796 798 799 799 800 801 803 805 807 810 812 814 816 818 820 822 824 826 828 829 831 832 833 835 836 837 838 839 840 841 842 843 844 846 846 847 848 849 850 850 851 852 852 853 854 855 856 857
768 767 769 768 769 765 757 755 755 755 752 744 752 767 763 747 736 736 738 739 742 745 744 745 747 750 752 753 755 756 755 759 761 760 760 762 766 769 773 776 780 785 789 792 791 790 790 791 793 795 796 797 798 799 800 802 804 806 809 811 813 814 817 819 821 823 825 827 829 830 831 833 834 835 836 837 838 839 840 841 842 843 845 845 846 847 848 849 850 851 851 852 853 854 854 856 857
769 768 768 770 773 765 753 753 755 755 751 743 752 766 758 741 734 735 736 737 741 744 745 746 747 749 751 752 754 755 756 757 757 756 756 759 763 766 771 774 776 781 786 789 790 790 790 790 791 793 794 795 796 797 798 800 802 805 807 809 811 813 815 818 820 823 825 826 828 830 831 832 833 834 836 837 837 839 839 840 841 843 843 844 845 846 847 848 849 850 851 851 852 853 854 856 857
771 772 773 771 771 765 755 752 752 753 750 744 752 760 751 739 734 734 735 737 740 742 744 746 746 747 749 750 752 753 754 755 756 756 757 760 762 763 767 770 772 776 782 787 789 790 790 789 790 791 793 794 795 796 798 800 801 804 806 808 810 812 814 817 820 822 824 826 827 829 830 831 832 834 835 836 837 838 839 839 840 842 842 843 844 846 847 847 849 849 850 851 852 853 854 856 858
775 776 777 773 771 769 762 753 748 751 752 748 751 754 746 738 735 734 734 735 738 741 743 745 746 746 747 748 750 751 752 754 756 757 759 761 762 762 764 766 769 772 778 783 787 788 788 789 790 791 792 793 794 796 797 799 801 803 805 807 809 811 813 816 819 821 823 825 826 828 829 830 831 833 834 835 836 837 838 839 840 841 842 842 844 845 846 847 848 849 850 851 851 852 854 855 857
780 779 780 777 773 773 770 759 748 748 753 752 750 749 742 736 734 734 733 734 736 738 740 744 745 745 745 746 748 749 751 753 754 753 755 758 759 761 762 765 767 769 774 779 784 786 786 787 789 790 792 793 794 795 797 799 801 803 804 806 808 810 813 816 818 820 822 823 825 827 828 829 830 831 833 834 835 836 837 838 839 840 841 842 843 844 845 846 847 848 849 850 851 852 853 855 857
783 783 782 780 776 773 773 765 753 750 753 754 753 749 741 737 735 733 732 733 735 735 736 740 742 743 744 744 746 748 749 750 749 748 750 753 756 759 761 764 766 767 771 776 781 784 785 786 787 789 791 793 794 795 796 798 800 802 803 805 807 809 812 814 817 818 820 822 824 826 827 828 829 830 832 833 834 835 836 837 838 839 840 841 842 843 844 846 846 847 848 849 851 852 853 855 856
782 782 782 783 780 776 773 766 757 755 757 756 753 748 742 741 738 734 732 732 734 733 733 737 739 741 742 742 743 745 747 746 743 743 745 749 754 757 759 762 765 766 769 774 779 782 783 784 786 788 789 791 793 794 795 797 798 800 801 803 804 807 810 813 815 817 819 820 822 824 826 827 828 829 831 832 833 834 835 836 837 839 840 840 841 842 843 845 845 847 848 849 850 852 854 855 856
779 780 782 783 783 780 774 767 759 757 761 757 751 747 745 744 740 734 732 732 733 733 733 735 736 739 740 740 740 741 742 740 737 741 745 749 753 756 759 762 765 767 768 771 775 778 780 782 783 785 786 789 790 791 793 794 795 797 798 799 801 804 808 810 813 815 817 819 821 823 824 826 827 828 830 831 832 833 834 835 836 838 839 840 841 842 843 844 845 846 847 849 850 851 854 855 856
778 780 781 781 782 780 774 769 763 759 764 760 751 751 750 746 742 735 732 733 733 731 732 733 733 735 736 736 736 736 736 734 735 740 743 747 751 754 757 759 762 763 764 767 771 775 778 780 781 782 784 786 787 789 790 792 793 794 795 796 799 802 806 808 811 813 815 817 819 821 823 824 825 827 828 830 831 832 833 834 835 836 838 839 840 841 843 843 844 845 846 848 850 851 853 855 856
780 781 782 783 781 777 773 769 763 761 765 762 754 753 752 746 741 736 733 731 729 726 727 728 729 732 733 733 732 731 731 731 734 739 742 745 748 751 755 757 758 759 761 766 770 775 777 777 778 780 782 783 784 786 788 790 792 794 795 796 799 802 804 807 809 812 814 816 818 820 821 823 824 826 827 828 829 830 832 833 834 835 837 837 839 840 842 843 843 844 845 847 849 851 853 854 855
781 781 783 784 780 780 777 771 766 763 763 761 757 756 752 747 743 737 733 729 725 724 725 725 725 727 727 727 727 728 729 730 733 736 739 743 746 749 752 754 756 758 761 764 768 771 772 773 775 778 780 781 782 784 786 789 792 794 796 797 799 801 803 806 809 811 812 814 816 818 819 821 823 825 826 827 828 829 831 832 833 834 835 836 838 839 840 842 842 844 845 846 847 850 852 854 854
780 779 781 782 780 780 778 774 770 765 761 758 759 760 750 743 744 738 731 729 726 723 724 725 725 724 723 723 723 725 725 726 730 733 735 740 743 745 747 749 752 755 757 759 762 765 767 770 773 775 778 780 781 782 785 788 791 793 794 796 798 800 802 804 806 808 810 812 814 816 818 820 822 823 825 826 827 828 830 831 832 833 834 835 836 838 839 840 842 843 844 845 846 848 850 852 853
780 777 775 775 776 776 775 775 774 774 771 757 758 767 755 740 742 738 730 729 728 725 724 725 724 724 724 724 723 723 722 721 722 725 729 734 737 740 742 746 750 752 752 753 757 761 765 768 771 774 776 778 779 781 783 786 788 790 791 792 793 795 798 799 801 804 807 810 812 814 817 818 820 822 823 824 826 827 829 830 831 832 833 834 835 837 838 839 841 842 843 844 846 846 848 850 851
782 774 768 770 774 776 775 775 777 780 775 758 756 768 762 749 743 737 733 731 728 725 724 723 723 724 725 725 723 722 721 719 718 720 724 729 733 737 740 742 745 746 746 748 754 759 763 766 769 771 774 775 777 779 781 783 785 786 787 788 789 791 794 796 799 802 805 808 811 813 815 817 819 820 821 823 824 826 828 829 830 831 832 833 834 835 837 838 840 841 842 844 845 846 847 848 849
779 768 765 769 771 774 774 775 778 776 770 762 759 764 768 763 748 737 737 736 731 727 723 720 719 721 722 721 720 719 718 717 716 718 722 726 730 734 736 737 738 738 740 746 751 755 759 763 766 769 771 773 775 777 779 781 782 783 784 786 788 790 792 795 798 801 804 807 809 812 814 816 817 819 820 821 823 825 826 828 829 830 831 832 833 834 836 838 839 840 842 843 844 845 846 846 848
772 764 766 768 768 770 770 773 776 772 772 772 764 762 770 767 748 736 737 736 732 728 722 717 714 714 716 717 716 715 714 714 714 716 719 722 726 729 731 732 732 733 737 742 745 750 756 760 764 767 769 771 773 775 777 779 780 781 782 784 787 789 792 795 797 800 803 805 808 810 812 814 816 817 819 820 822 824 825 826 827 828 830 831 832 834 835 837 838 839 840 841 843 843 844 845 846
767 766 768 767 767 768 767 772 773 772 778 777 764 761 769 764 746 738 738 735 730 725 719 714 709 707 710 712 713 713 714 715 715 715 717 718 720 722 725 728 730 732 736 740 743 749 754 758 761 764 765 768 770 773 775 777 779 779 781 782 785 788 791 793 796 799 801 804 806 808 810 812 814 815 817 819 821 822 824 825 826 827 829 830 831 833 834 836 837 838 839 840 841 842 843 844 845
766 768 767 767 768 767 767 769 768 775 782 773 760 758 765 764 748 737 734 727 721 720 717 712 707 704 706 709 712 713 713 714 714 715 716 717 718 720 722 725 728 732 736 740 744 748 751 754 757 760 762 765 767 769 772 774 776 777 779 781 783 785 788 791 794 796 799 801 803 806 808 810 812 814 815 817 819 821 822 824 825 826 828 829 830 832 833 834 836 837 838 839 840 841 842 843 844
767 770 770 772 771 767 771 770 770 783 783 765 754 754 762 764 749 735 729 720 715 717 715 711 708 705 703 706 709 711 711 712 712 714 715 716 719 721 724 725 728 733 736 739 741 744 747 750 753 757 759 761 763 766 769 771 773 775 776 779 781 783 786 788 791 794 796 798 801 804 806 808 810 812 814 816 817 819 821 822 824 825 826 828 829 831 832 833 834 836 836 837 838 839 840 841 842
768 770 773 781 781 779 781 777 775 782 773 755 750 754 757 754 740 731 726 717 714 715 713 710 708 706 703 703 706 708 709 709 710 711 712 714 716 719 721 723 726 730 733 735 737 740 743 745 749 752 754 757 761 763 766 768 770 772 774 777 780 782 784 786 789 792 794 796 799 801 804 806 808 810 812 814 815 817 819 821 822 824 825 827 828 830 831 832 833 834 835 836 837 838 838 839 840
769 770 773 781 786 790 791 779 774 775 764 751 749 753 754 744 730 724 720 714 710 709 708 708 706 705 703 702 703 706 706 706 706 707 709 710 712 714 716 718 721 724 727 729 733 736 738 741 744 748 751 755 759 761 764 766 767 770 773 775 778 780 782 784 787 789 792 795 797 799 801 803 805 807 809 811 814 816 818 819 821 822 824 825 827 828 829 830 832 832 833 834 835 836 837 838 839
767 765 768 773 773 779 782 773 769 769 760 751 750 754 752 737 723 715 710 707 705 704 703 703 703 701 700 700 701 703 704 704 703 703 704 706 707 710 711 713 716 719 722 725 728 732 735 736 739 742 746 750 754 758 761 763 765 769 771 774 776 778 780 783 785 788 790 793 795 797 799 801 803 805 808 810 813 815 816 818 819 821 822 824 825 827 828 829 830 831 832 833 833 834 835 836 837
762 758 764 770 763 763 767 764 760 759 757 752 749 748 737 723 715 709 707 705 702 703 702 701 702 699 698 698 698 700 701 702 701 700 701 702 703 705 706 709 712 714 718 721 724 727 730 732 734 737 741 746 750 754 757 760 764 767 769 771 774 777 779 781 783 786 788 791 793 795 797 799 801 804 806 809 811 813 815 816 818 819 821 822 823 825 826 827 828 829 830 831 832 833 834 835 836
757 760 763 760 754 756 763 763 756 757 763 755 742 739 730 722 716 705 705 708 702 702 702 701 700 696 696 696 694 696 698 698 699 698 698 698 699 702 703 705 708 711 714 717 719 721 723 725 729 733 739 744 748 751 754 758 762 764 767 769 772 774 776 778 781 784 786 790 792 793 796 798 800 803 805 807 809 811 813 814 816 818 819 820 822 823 824 825 826 827 828 829 830 831 832 833 834
752 758 754 748 751 756 760 763 759 759 765 752 737 737 732 728 723 706 701 707 702 698 698 697 696 694 695 694 691 692 694 694 695 695 695 695 695 697 699 701 704 706 710 713 714 716 718 722 725 730 735 738 741 746 750 755 759 762 765 766 769 771 774 776 779 782 785 788 790 792 794 796 798 801 803 805 807 809 811 813 814 816 817 819 820 821 823 824 825 826 827 828 828 829 831 832 833
747 748 743 746 755 759 759 762 761 759 761 750 737 735 731 726 721 708 702 703 699 695 694 693 693 691 692 692 689 689 690 691 692 691 692 693 692 693 694 696 699 702 705 709 712 716 719 721 724 727 731 734 739 743 748 752 756 759 761 763 766 769 772 775 777 780 783 785 787 789 791 794 796 799 801 803 805 807 809 811 812 814 816 817 818 820 821 822 823 824 825 826 827 828 829 831 832
746 746 747 748 751 757 760 760 756 752 755 751 741 735 728 718 710 702 698 697 694 693 692 691 690 689 689 689 688 687 688 688 688 688 688 689 689 689 690 692 694 697 700 704 709 714 716 719 721 725 730 735 739 741 744 748 752 756 759 762 765 767 770 772 775 778 780 782 785 787 789 791 794 796 799 801 803 805 807 808 810 812 814 815 817 818 819 821 822 823 824 825 826 827 828 829 831
749 752 754 751 748 755 763 759 750 746 748 749 744 739 724 706 699 697 693 690 688 688 688 687 687 686 686 686 685 685 685 684 684 684 684 684 685 685 686 688 690 694 699 702 706 710 713 717 719 723 728 732 735 738 740 744 749 753 757 759 762 765 768 770 773 775 778 780 783 784 787 789 791 794 796 798 800 803 804 806 808 810 812 814 815 817 818 819 820 821 822 824 825 826 827 829 830
748 748 747 747 748 753 763 763 750 741 741 739 739 739 721 700 696 695 692 691 689 687 688 687 685 685 684 683 682 680 680 680 680 679 679 679 680 681 682 684 688 693 697 700 703 706 710 713 716 719 724 728 731 734 738 741 746 751 754 757 760 763 766 768 771 773 776 778 780 782 784 787 789 792 794 796 798 800 803 805 807 809 811 812 814 815 817 818 819 820 821 822 824 825 827 828 829